Saltar para o conteúdo principal

Faro (Aeródromo)

ID 1200554 · 37.0166, -7.9720 mapa

Última leitura · 2026-05-09 18:00 (Europe/Lisbon)

Temperatura
18.7 °C
Humidade
Pressão
1,010.6 hPa
Precipitação
0.0 mm
Radiação
988 W/m²
Velocidade do vento
20.9 km/h
Direcção do vento
W · Oeste

Histórico de 24 horas

Hora (Europe/Lisbon) Temperatura Humidade Pressão Chuva Vento Direcção
2026-05-09 18:00 18.7 °C 1,010.6 0.0 mm 20.9 km/h W
2026-05-09 17:00 20.3 °C 1,010.1 0.0 mm 25.9 km/h SW
2026-05-09 16:00 21.1 °C 1,009.9 0.0 mm 27.4 km/h SW
2026-05-09 15:00 20.2 °C 1,009.4 0.0 mm 31.0 km/h SW
2026-05-09 14:00 20.0 °C 1,009.2 0.0 mm 24.8 km/h SW
2026-05-09 13:00 20.1 °C 1,008.9 0.0 mm 25.9 km/h SW
2026-05-09 12:00 19.9 °C 1,008.2 0.0 mm 25.2 km/h SW
2026-05-09 11:00 18.8 °C 1,007.3 0.0 mm 26.6 km/h SW
2026-05-09 10:00 18.0 °C 1,006.3 0.0 mm 30.6 km/h SW
2026-05-09 09:00 16.9 °C 1,005.5 0.0 mm 33.5 km/h SW
2026-05-09 08:00 16.6 °C 1,005.2 3.1 mm 29.2 km/h SW
2026-05-09 07:00 16.3 °C 1,005.1 0.0 mm 24.8 km/h S
2026-05-09 06:00 16.6 °C 1,005.4 0.0 mm 39.2 km/h S
2026-05-09 05:00 17.0 °C 1,005.7 0.0 mm 20.2 km/h S
2026-05-09 04:00 17.0 °C 1,006.2 0.0 mm 24.5 km/h S
2026-05-09 03:00 16.7 °C 1,006.8 0.0 mm 24.1 km/h S
2026-05-09 02:00 16.0 °C 1,007.1 1.3 mm 32.4 km/h S
2026-05-09 01:00 15.3 °C 1,008.4 0.1 mm 13.7 km/h E
2026-05-09 00:00 14.5 °C 1,009.1 0.0 mm 10.1 km/h E
2026-05-08 23:00 14.0 °C 1,009.6 3.1 mm 8.6 km/h NE
2026-05-08 22:00 16.0 °C 1,009.3 0.4 mm 18.0 km/h W
2026-05-08 21:00 16.2 °C 1,008.9 0.2 mm 13.7 km/h S
2026-05-08 20:00 18.1 °C 1,008.8 0.0 mm 21.2 km/h S
2026-05-08 19:00 18.4 °C 1,009.0 0.0 mm 18.0 km/h S